AirNav   Air Wisconsin pilot careers
 
 1014 users online  

OI40 Hallelujah Field Airport
Goshen, Ohio, USA

GOING TO GOSHEN?


FAA INFORMATION EFFECTIVE 04 JANUARY 2018

Location

FAA Identifier: OI40
Lat/Long: 39-12-09.2210N / 084-06-16.7610W
39-12.153683N / 084-06.279350W
39.2025614 / -84.1046558
(estimated)
Elevation: 890 ft. / 271 m (estimated)
Variation: 04W (1985)
From city: 3 miles SE of GOSHEN, OH
Time zone: UTC -5 (UTC -4 during Daylight Saving Time)
Zip code: 45122

Airport Operations

Airport use: Private use. Permission required prior to landing
Activation date: 05/1978
Control tower: no
ARTCC: INDIANAPOLIS CENTER
FSS: DAYTON FLIGHT SERVICE STATION
Attendance: CONTINUOUS
Wind indicator: yes
Segmented circle: no

Airport Communications

WX AWOS-3 at I69 (9 nm SW): 127.275 (513-732-6978)
WX ASOS at LUK (16 nm W): PHONE 513-321-6291
WX AWOS-3 at I68 (17 nm NW): 120.55 (513-934-5500)
WX ASOS at ILN (20 nm NE): PHONE 937-383-7334

Nearby radio navigation aids

VOR radial/distance  VOR name  Freq  Var
MXQr230/19.6MIDWEST VOR/DME112.9004W
CVGr072/30.0CINCINNATI VORTAC117.3004W
FLMr020/34.6FALMOUTH VOR/DME117.0004W
SGHr202/39.9SPRINGFIELD VOR/DME113.2004W

 
NDB name  Hdg/Dist  Freq  Var  ID
SPORTYS038/9.124504WPWF .--. .-- ..-.
CINCINNATI081/11.333504WLUK .-.. ..- -.-
MADEIRA100/11.737904WMDE -- -.. .
CUBLA234/14.029904WHW .... .--
HOOK FIELD142/23.923904WHKF .... -.- ..-.
HILLSBORO277/26.127805WHOC .... --- -.-.
WEST UNION314/32.735904WAMT .- -- -

Airport Services

Runway Information

Runway NE/SW

Dimensions: 1875 x 75 ft. / 572 x 23 m
Surface: turf
RUNWAY NE  RUNWAY SW
Traffic pattern: leftleft
Obstructions: trees, 500 ft. from runwaywires, 1500 ft. from runway

Airport Ownership and Management from official FAA records

Ownership: Privately-owned
Owner: PAUL R. RITCHEY
6288 S.R. 727
GOSHEN, OH 45122
Phone 513-625-6377
Manager: PAUL R. RITCHEY
6288 S.R. 727
GOSHEN, OH 45122
Phone 513-625-6377

Airport Operational Statistics

Aircraft based on the field: 1
Single engine airplanes: 1
    

Additional Remarks

OWNER DESIRES ARPT NOT BE CHARTED.

Instrument Procedures

There are no published instrument procedures at OI40.

Some nearby airports with instrument procedures:

I69 - Clermont County Airport (9 nm SW)
KLUK - Cincinnati Municipal Airport-Lunken Field (16 nm W)
I68 - Warren County Airport/John Lane Field (17 nm NW)
KILN - Wilmington Air Park (20 nm NE)
I66 - Clinton Field Airport (21 nm NE)
 
Loc | Ops | Rwys | IFR | FBO | Links
Com | Nav | Svcs | Stats | Notes


 
Area around OI40 (Hallelujah Field Airport)
 
Road maps at: MapQuest Bing Google
 
Aerial photo
No photo
 
Sectional chart

 
Airport distance calculator
Flying to Hallelujah Field Airport? Find the distance to fly.

From to OI40

Sunrise and sunset
Times for 21-Jan-2018
 Local
(UTC-5)
 Zulu
(UTC)
Morning civil twilight07:2412:24
Sunrise07:5312:53
Sunset17:4322:43
Evening civil twilight18:1223:12

Current date and time
Zulu (UTC)  22-Jan-2018 01:17:43
Local (UTC-5)  21-Jan-2018 20:17:43
 
METAR
KI69 
9nm SW 
220055Z AUTO 00000KT 10SM OVC024 12/10 A3006 RMK AO2 T01230100
KLUK 
16nm SW 
220053Z 00000KT 10SM OVC027 12/10 A3006 RMK AO2 SLP179 T01220100
KILN 
20nm NE 
220054Z AUTO 20006KT 9SM OVC027 09/09 A3005 RMK AO2 SLP189 T00940094
TAF
KLUK 
16nm SW 
212211Z 2122/2218 19008KT P6SM VCSH SCT020 OVC035 FM220400 18006KT P6SM BKN040 FM220800 18007KT P6SM BKN070 WS020/21040KT FM221400 17010G20KT P6SM OVC100
KILN 
20nm NE 
212211Z 2122/2218 19008KT P6SM VCSH SCT018 OVC028 FM220400 19007KT P6SM BKN035 FM220800 18007KT P6SM BKN070 FM221500 17009G16KT P6SM BKN080
NOTAMs
Click for the latest NOTAMs
NOTAMs are issued by the DoD/FAA and will open in a separate window not controlled by AirNav.

 

 
 

Would you like to see your business listed on this page?

 If your business provides an interesting product or service to pilots, flight crews, aircraft, or users of the Hallelujah Field Airport, you should consider listing it here.  To start the listing process, click on the button below
 
Add a business
 

Other Pages about Hallelujah Field Airport

Update a link
 
Copyright © AirNav, LLC. All rights reserved. Privacy Policy  Contact